Date,TemperatureHighF,TemperatureAvgF,TemperatureLowF,DewpointHighF,DewpointAvgF,DewpointLowF,HumidityHigh,HumidityAvg,HumidityLow,PressureMaxIn,PressureMinIn,WindSpeedMaxMPH,WindSpeedAvgMPH,GustSpeedMaxMPH,PrecipitationSumIn
2013-1-1,56.4,50.6,45.5,43.2,41.5,39.8,87,71,56,30.25,30.14,10,4,15,0.00
2013-1-2,60.6,50.4,42.8,51.6,42.5,38.6,94,76,47,30.43,30.22,5,1,8,0.00
2013-1-3,63.5,52.1,45.1,48.4,41.2,28.5,93,69,43,30.48,30.40,6,2,9,0.00
2013-1-4,61.1,52.7,45.1,34.9,29.4,24.3,51,41,26,30.42,30.13,6,2,10,0.00
2013-1-5,59.1,51.6,45.8,32.5,29.3,26.8,51,42,35,30.12,29.85,9,3,28,0.00
2013-1-6,50.0,44.2,39.3,38.0,31.8,25.7,87,62,47,29.98,29.76,13,6,25,0.21
2013-1-7,53.4,43.5,36.1,26.1,22.8,17.0,62,44,30,30.07,29.87,17,5,23,0.00
2013-1-8,41.0,35.1,32.9,30.9,23.9,15.1,87,64,35,30.27,30.07,11,4,18,0.04
2013-1-9,48.7,38.6,32.7,25.0,21.3,16.6,62,50,39,30.30,30.21,11,2,18,0.00
2013-1-10,52.5,43.5,33.8,31.9,24.9,17.6,58,48,33,30.26,30.09,6,2,9,0.00
2013-1-11,62.0,53.7,45.5,52.3,44.1,32.0,97,71,48,30.10,29.86,9,2,15,0.08
2013-1-12,61.5,51.0,44.6,49.9,39.9,35.5,92,68,44,30.16,29.88,10,2,19,0.00
2013-1-13,61.8,49.8,41.9,42.9,37.7,34.0,85,65,39,30.33,30.10,7,2,10,0.00
2013-1-14,57.0,51.3,46.2,46.0,43.2,39.4,86,74,63,30.36,30.27,8,2,13,0.00
2013-1-15,62.2,54.4,48.5,52.3,45.9,40.8,91,74,49,30.36,30.08,12,4,17,0.00
2013-1-16,59.1,54.4,46.9,51.0,43.9,35.8,98,69,52,30.11,29.72,19,6,29,1.03
2013-1-17,59.0,53.2,44.7,47.3,40.8,35.3,77,63,47,29.87,29.74,13,4,23,0.00
2013-1-18,56.8,52.1,44.9,50.8,42.6,32.9,92,70,51,29.74,29.51,14,6,26,0.16
2013-1-19,55.9,48.7,42.4,38.1,33.2,29.4,76,56,39,29.97,29.61,16,5,24,0.00
2013-1-20,66.7,55.2,46.5,50.5,42.1,34.9,87,63,41,30.05,29.91,6,2,9,0.00
2013-1-21,65.1,57.1,51.2,53.6,47.7,39.8,95,73,44,29.99,29.71,13,4,23,0.04
2013-1-22,63.6,55.9,49.8,51.4,43.8,38.0,85,66,40,29.87,29.71,8,2,15,0.00
2013-1-23,59.5,54.3,50.3,43.7,36.4,32.2,72,52,37,30.06,29.84,12,4,19,0.00
2013-1-24,63.1,53.4,45.6,52.0,44.1,38.1,95,72,48,30.06,29.65,16,5,29,0.38
2013-1-25,60.0,49.7,42.9,48.8,42.2,37.3,94,76,46,29.74,29.54,14,4,28,0.58
2013-1-26,59.5,49.1,45.5,49.3,42.8,39.7,93,79,56,29.73,29.49,8,3,13,0.41
2013-1-27,56.4,47.1,44.2,40.8,36.9,33.0,83,68,47,30.00,29.73,9,4,15,0.00
2013-1-28,56.4,48.2,43.8,41.2,36.2,32.9,79,64,47,30.07,29.96,8,2,15,0.00
2013-1-29,49.6,46.2,43.1,40.1,35.5,29.4,82,67,54,30.19,30.03,7,3,11,0.00
2013-1-30,59.0,49.1,40.6,35.3,28.5,0.7,76,48,10,30.19,29.98,7,2,9,0.00
2013-1-31,61.3,52.2,43.3,38.9,32.5,24.0,59,47,38,30.06,29.89,10,3,16,0.00
2013-2-1,51.0,49.9,49.1,38.9,36.9,34.6,64,61,57,30.03,29.97,4,2,5,0.00
2013-2-2,65.6,55.4,47.6,48.9,42.3,35.3,83,63,42,30.00,29.82,9,3,13,0.00
2013-2-3,67.8,60.3,55.5,54.0,47.5,42.1,91,65,43,30.02,29.82,14,6,28,0.00
2013-2-4,67.1,58.9,54.3,55.4,50.5,42.3,93,76,46,30.08,29.94,10,3,14,0.00
2013-2-5,66.5,57.0,48.7,54.0,45.7,38.5,91,69,40,30.05,29.90,8,2,15,0.00
2013-2-6,64.2,54.4,46.4,49.6,43.3,37.6,87,68,44,29.94,29.70,7,2,11,0.00
2013-2-7,61.3,54.5,49.1,48.8,42.2,38.6,91,64,45,29.81,29.59,20,6,34,0.29
2013-2-8,57.2,51.1,45.6,43.2,36.4,31.8,75,58,44,29.82,29.60,10,3,17,0.00
2013-2-9,59.7,50.3,41.9,40.2,34.6,30.5,79,57,36,29.96,29.82,9,3,16,0.00
2013-2-10,59.9,50.9,44.4,41.6,32.7,28.6,69,51,35,29.96,29.83,9,2,15,0.00
2013-2-11,55.9,47.7,43.1,35.2,28.9,25.3,71,49,36,30.13,29.82,15,5,23,0.00
2013-2-12,63.1,50.4,40.1,43.7,35.1,26.4,73,57,35,30.14,30.04,10,2,14,0.00
2013-2-13,54.1,50.1,44.2,48.7,43.8,39.3,96,79,58,30.06,29.96,13,4,28,0.65
2013-2-14,51.6,48.0,45.8,46.4,43.2,39.2,93,84,66,30.00,29.73,11,2,16,0.54
2013-2-15,52.3,46.7,42.9,45.2,41.4,35.4,96,82,58,30.10,29.73,9,3,17,0.34
2013-2-16,56.3,46.8,41.9,43.0,39.7,37.5,89,77,54,30.13,30.08,5,2,9,0.00
2013-3-9,55.9,55.3,54.1,46.6,45.4,43.8,72,69,67,29.81,29.80,3,2,6,0.00
2013-3-10,73.9,61.2,52.3,48.1,43.6,37.4,81,55,31,29.81,29.69,6,3,12,0.00
2013-3-11,75.7,62.9,52.7,53.3,46.3,38.5,85,58,36,29.77,29.56,10,3,16,0.00
2013-3-12,69.8,60.5,53.0,44.1,37.4,33.5,58,43,28,29.72,29.57,16,5,22,0.00
2013-3-13,72.6,59.1,47.8,53.6,40.7,36.9,89,53,31,29.76,29.66,9,3,13,0.00
2013-3-14,69.6,61.2,55.4,53.4,43.8,33.0,89,55,36,29.74,29.31,17,7,23,0.00
2013-3-15,64.2,55.3,48.0,39.1,34.0,30.2,55,45,35,29.64,29.38,17,6,24,0.00
2013-3-16,58.8,48.5,42.4,37.1,31.0,27.8,65,51,36,30.01,29.61,11,4,18,0.00
2013-3-17,60.6,47.0,41.1,33.5,29.2,26.5,67,51,35,30.19,29.98,10,4,15,0.00
2013-3-18,59.3,49.2,40.6,47.4,38.0,30.3,92,67,42,30.20,29.97,6,3,10,0.00
2013-3-19,69.9,57.9,49.4,52.4,46.5,42.5,90,69,40,29.97,29.75,9,3,15,0.00
2013-3-20,75.7,60.8,49.1,51.9,46.4,38.0,91,63,35,29.89,29.83,8,3,13,0.00
2013-3-21,67.2,60.3,54.8,54.2,50.1,35.8,93,71,44,29.83,29.52,13,5,21,0.00
2013-3-22,64.9,56.7,49.4,36.5,30.7,20.4,57,38,26,29.75,29.53,19,10,30,0.00
2013-3-23,70.8,56.1,45.1,32.0,4.5,-14.0,52,18,3,29.97,29.72,10,4,13,0.00
2013-3-24,72.6,57.8,46.0,48.4,40.5,31.4,78,54,35,30.00,29.88,10,4,17,0.00
2013-3-25,66.0,58.5,52.7,53.5,48.3,41.3,91,70,49,29.96,29.59,15,6,21,0.00
2013-3-26,68.7,59.7,50.7,53.6,41.9,36.4,91,54,36,29.65,29.49,17,6,24,0.00
2013-3-27,70.7,60.2,51.4,45.1,41.6,36.2,66,51,37,29.83,29.65,9,3,17,0.00
2013-3-28,73.7,58.4,52.5,52.2,46.0,40.2,91,65,41,30.05,29.84,8,2,12,0.04
2013-3-29,75.2,59.8,50.1,54.3,48.2,40.8,97,69,36,30.07,29.95,6,2,9,0.00
2013-3-30,61.8,58.2,55.0,49.1,45.4,40.8,78,63,48,29.99,29.83,8,2,11,0.00
2013-3-31,75.5,64.0,56.8,51.5,47.2,40.4,77,56,38,29.86,29.70,9,4,15,0.00
2013-4-1,75.3,62.9,51.4,54.6,34.2,-14.0,93,45,3,29.86,29.75,16,5,26,0.00
2013-4-2,77.7,63.6,53.4,47.6,41.3,35.4,64,45,30,29.88,29.58,13,4,20,0.00
2013-4-3,71.4,62.6,56.8,56.5,42.5,32.0,91,51,25,29.68,29.48,17,7,28,0.00
2013-4-4,56.8,54.5,54.1,39.9,38.5,37.7,57,55,49,29.72,29.65,13,8,17,0.00
2013-4-5,54.3,54.3,54.3,38.4,38.4,38.4,55,55,55,29.72,29.72,9,9,9,0.00
2013-4-6,54.3,54.3,54.3,38.4,38.4,38.4,55,55,55,29.72,29.72,9,9,9,0.00
2013-4-7,54.3,54.3,54.3,38.4,38.4,38.4,55,55,55,29.72,29.72,9,9,9,0.00
2013-4-8,54.3,54.3,54.3,38.4,38.4,38.4,55,55,55,29.72,29.72,9,9,9,0.00
2013-4-9,56.3,54.4,54.3,46.1,38.9,38.4,71,56,55,29.99,29.72,9,8,9,0.00
2013-4-10,78.9,63.1,49.8,49.8,41.4,33.4,81,49,21,29.99,29.86,6,2,12,0.00
2013-4-11,81.6,63.5,50.7,44.6,39.4,28.2,67,44,15,30.05,29.90,9,4,15,0.00
2013-4-12,81.6,66.7,52.8,46.6,41.4,32.5,66,42,24,30.07,29.96,9,2,11,0.00
2013-4-13,59.9,58.0,56.6,39.3,38.0,32.9,50,47,37,30.07,30.04,3,2,5,0.00
2013-4-14,87.2,65.7,56.6,46.4,41.9,36.4,56,44,20,30.14,29.98,17,5,27,0.00
2013-4-15,65.1,57.1,52.1,45.9,39.0,33.5,74,52,34,30.11,29.94,16,6,24,0.00
2013-4-16,66.2,55.6,49.1,45.1,38.9,33.5,84,56,34,30.08,29.97,15,6,27,0.08
2013-4-17,68.9,58.2,51.2,34.9,21.1,-12.0,52,30,4,30.11,29.97,20,8,34,0.00
2013-4-18,66.2,57.8,52.1,33.8,18.6,-12.0,46,27,4,30.08,29.97,18,7,29,0.00
2013-4-19,64.4,54.8,47.6,44.1,32.3,27.0,64,43,35,30.00,29.88,12,4,17,0.00
2013-4-20,68.0,56.1,46.0,41.7,35.4,29.5,63,47,33,30.05,29.91,10,4,19,0.00
2013-4-21,76.2,61.4,47.4,40.8,30.8,2.5,60,36,7,30.06,29.89,11,3,17,0.00
2013-4-22,75.3,59.4,51.9,39.7,35.0,31.1,50,41,21,30.03,29.96,6,2,11,0.00
2013-4-28,90.5,73.7,57.2,47.5,18.2,-19.0,48,21,2,30.04,29.92,6,2,11,0.00
2013-4-29,92.6,75.4,59.5,39.3,12.0,-20.0,31,15,2,30.11,30.01,8,2,13,0.00
2013-4-30,89.4,77.9,65.8,35.0,-0.3,-20.0,25,7,2,30.09,30.00,11,4,18,0.00
2013-5-1,91.2,78.0,69.0,41.9,23.9,-19.0,32,18,2,30.05,29.91,15,6,24,0.00
2013-5-2,86.9,78.2,70.5,39.6,10.2,-20.0,32,12,2,29.93,29.86,14,8,23,0.00
2013-5-3,93.7,77.7,66.7,49.6,38.8,-9.0,43,28,2,29.91,29.79,11,4,20,0.00
2013-5-4,94.1,78.1,63.6,52.0,43.5,17.6,48,32,7,29.96,29.84,8,2,11,0.00
2013-5-5,95.3,79.0,64.9,49.9,43.6,30.8,44,31,11,30.05,29.92,7,2,11,0.00
2013-5-6,90.5,77.2,67.6,51.6,45.4,37.8,49,34,18,30.09,29.94,15,4,23,0.00
2013-5-7,87.0,76.2,66.0,50.3,44.4,40.1,57,33,21,29.99,29.85,10,4,18,0.00
2013-5-8,70.1,68.2,63.1,57.7,53.0,42.9,70,59,40,29.91,29.85,6,2,9,0.00
2013-5-9,70.1,70.1,70.1,56.9,56.9,56.9,63,63,63,29.87,29.87,2,2,2,0.00
2013-5-10,70.1,70.1,70.1,56.9,56.9,56.9,63,63,63,29.87,29.87,2,2,2,0.00
2013-5-11,70.1,70.1,70.1,56.9,56.9,56.9,63,63,63,29.87,29.87,2,2,2,0.00
2013-5-12,70.1,70.1,70.1,56.9,56.9,56.9,63,63,63,29.87,29.87,2,2,2,0.00
2013-5-13,70.1,67.3,58.1,56.9,55.8,50.3,81,67,63,29.87,29.64,9,2,14,0.13
2013-5-14,74.1,62.4,57.2,54.3,49.0,43.0,89,63,40,29.86,29.65,13,6,20,0.15
2013-5-15,86.0,70.5,56.6,51.9,47.4,39.2,73,47,29,29.91,29.79,8,2,15,0.00
2013-5-16,85.8,69.7,58.4,56.2,49.0,40.1,74,50,27,29.92,29.84,7,2,13,0.00
2013-5-17,88.7,71.0,61.3,57.2,50.2,45.5,68,49,28,29.93,29.81,10,3,15,0.00
2013-5-18,97.1,79.0,63.3,59.6,49.6,-6.0,69,42,2,30.02,29.88,11,2,17,0.00
2013-5-19,97.7,78.6,69.4,53.2,49.4,38.6,52,39,14,29.99,29.88,9,3,11,0.00
2013-5-20,99.6,82.6,69.4,57.2,50.5,46.2,49,35,18,29.96,29.84,7,2,11,0.00
2013-5-21,101.3,81.9,68.3,54.9,42.6,-6.0,52,31,2,29.96,29.85,9,3,13,0.00
2013-5-22,95.7,79.2,66.5,54.9,38.0,-14.0,51,30,2,29.90,29.71,8,3,13,0.00
2013-5-23,87.6,77.6,67.6,51.2,44.5,37.3,48,32,20,29.75,29.57,14,6,20,0.00
2013-5-24,82.5,70.6,62.7,47.9,43.1,39.0,47,38,29,29.91,29.70,13,6,20,0.00
2013-5-25,84.2,73.3,62.4,46.3,42.3,36.8,46,34,20,29.97,29.85,11,5,22,0.00
2013-5-26,89.0,75.3,60.6,49.0,30.9,-12.0,58,29,2,29.97,29.79,12,4,17,0.00
2013-5-27,89.0,74.2,59.5,43.2,24.6,-18.0,40,23,2,29.94,29.85,11,4,17,0.00
2013-5-28,89.2,71.9,58.1,58.5,44.1,37.0,57,38,25,29.95,29.78,9,3,15,0.00
2013-5-29,93.2,78.2,68.1,53.8,46.4,30.7,56,34,22,29.78,29.54,14,6,23,0.00
2013-5-30,94.8,77.9,66.9,58.1,41.1,-8.0,67,35,2,29.72,29.65,9,4,13,0.00
2013-5-31,83.8,74.3,65.6,48.1,38.6,9.6,48,30,7,29.79,29.64,16,6,23,0.00
2013-6-1,82.5,69.9,57.5,55.1,39.0,11.6,72,34,7,29.84,29.75,10,3,15,0.00
2013-6-2,81.6,69.6,60.8,57.4,46.9,36.0,85,48,25,29.82,29.67,14,5,25,0.04
2013-6-3,91.4,73.5,59.5,49.1,42.2,-4.0,61,37,3,29.88,29.80,7,3,12,0.00
2013-6-4,88.8,75.5,63.5,52.2,44.1,-3.0,64,37,3,29.91,29.79,9,4,15,0.00
2013-6-5,90.1,75.7,62.2,51.0,35.7,-12.0,56,31,2,29.96,29.85,8,3,14,0.00
2013-6-6,77.7,73.1,61.8,59.4,53.7,50.7,75,52,44,29.98,29.92,4,0,4,0.00
2013-6-7,77.7,77.7,77.7,54.0,54.0,54.0,44,44,44,29.95,29.95,0,0,1,0.00
2013-6-8,82.4,76.0,66.7,55.0,52.8,45.7,58,45,31,29.95,29.80,6,1,10,0.00
2013-6-9,91.2,75.6,62.2,55.8,51.7,48.3,71,46,28,29.96,29.88,9,3,18,0.00
2013-6-10,95.7,80.6,65.3,55.1,49.8,43.4,57,37,18,29.97,29.79,8,2,15,0.00
2013-6-11,96.6,80.0,67.4,59.8,49.1,31.7,73,39,12,29.85,29.60,13,4,20,0.00
2013-6-12,94.1,72.4,57.0,67.4,51.0,41.2,94,51,20,29.80,29.63,11,3,17,1.67
2013-6-13,79.3,68.2,62.6,59.4,53.2,49.4,87,60,41,29.85,29.76,13,4,17,0.00
2013-6-14,81.1,70.3,63.6,60.3,54.2,50.7,77,58,39,29.94,29.81,11,5,18,0.00
2013-6-15,93.2,77.1,63.6,57.0,52.8,49.5,69,45,26,29.96,29.87,9,2,15,0.00
2013-6-16,98.2,81.4,66.9,62.2,51.5,4.1,66,40,3,29.99,29.89,9,3,14,0.00
2013-6-17,98.0,84.0,69.0,59.2,51.0,39.3,66,35,20,30.00,29.91,10,3,15,0.00
2013-6-18,94.2,83.8,74.8,55.8,50.2,43.9,42,32,22,30.01,29.90,16,6,28,0.00
2013-6-19,92.4,83.6,77.1,53.5,47.5,42.5,34,29,19,29.95,29.84,16,7,32,0.00
2013-6-20,94.8,84.3,77.7,50.5,45.7,41.9,38,27,18,29.97,29.79,18,9,30,0.00
2013-6-21,90.1,81.1,73.5,52.7,47.5,42.3,38,31,22,29.98,29.88,18,7,29,0.00
2013-6-22,98.0,83.1,70.7,50.9,25.2,-14.0,40,20,2,29.93,29.81,15,4,25,0.00
2013-6-23,101.4,86.4,71.9,52.8,44.7,25.3,40,25,7,29.87,29.77,13,3,20,0.00
2013-6-24,104.5,86.5,72.3,54.4,44.9,-2.0,44,28,2,29.84,29.71,9,2,14,0.00
2013-6-25,104.1,88.8,73.9,55.8,43.0,-4.0,41,25,2,29.83,29.73,6,3,13,0.00
2013-6-26,102.2,88.9,71.9,60.8,54.3,46.9,42,32,19,29.83,29.77,9,3,15,0.00
2013-6-27,96.0,96.0,96.0,59.5,59.5,59.5,30,30,30,29.80,29.80,4,4,4,0.00
2013-6-28,96.0,96.0,96.0,59.5,59.5,59.5,30,30,30,29.80,29.80,4,4,4,0.00
2013-6-29,96.0,96.0,96.0,59.5,59.5,59.5,30,30,30,29.80,29.80,4,4,4,0.00
2013-6-30,96.0,96.0,96.0,59.5,59.5,59.5,30,30,30,29.80,29.80,4,4,4,0.00
2013-7-1,96.0,77.0,64.9,59.5,45.2,8.7,55,36,6,30.03,29.80,12,4,17,0.00
2013-7-2,95.3,79.8,66.0,57.9,48.7,40.5,66,37,18,30.06,29.90,10,3,17,0.00
2013-7-3,80.0,80.0,80.0,45.8,45.8,45.8,30,30,30,29.95,29.95,0,0,1,0.00
2013-7-4,80.0,80.0,80.0,45.8,45.8,45.8,30,30,30,29.95,29.95,0,0,1,0.00
2013-7-5,80.0,80.0,80.0,45.8,45.8,45.8,30,30,30,29.95,29.95,0,0,1,0.00
2013-7-6,84.5,79.9,76.1,52.4,46.6,45.8,43,31,30,29.95,29.82,11,1,20,0.00
2013-7-7,89.0,81.3,73.5,58.2,53.0,48.0,56,38,30,29.95,29.80,16,9,28,0.00
2013-7-8,92.6,83.1,75.0,53.4,49.0,44.8,40,31,21,30.00,29.89,17,8,30,0.00
2013-7-9,94.4,84.2,77.5,55.2,50.2,44.6,41,31,24,29.95,29.82,19,9,30,0.00
2013-7-10,92.8,81.5,73.9,56.5,52.1,43.7,52,37,24,29.89,29.73,19,8,29,0.00
2013-7-11,95.3,81.2,73.0,55.5,50.4,43.2,45,35,23,29.86,29.74,11,4,18,0.00
2013-7-12,99.3,85.6,71.2,57.1,51.3,45.8,50,32,18,29.92,29.81,9,3,15,0.00
2013-7-13,96.6,83.5,75.0,57.0,52.5,46.0,44,35,27,29.92,29.84,11,5,15,0.00
2013-7-14,95.7,82.9,73.0,55.5,50.1,45.8,42,33,22,29.93,29.83,11,4,17,0.00
2013-7-15,94.8,82.4,71.4,53.7,47.4,42.9,38,30,21,29.93,29.81,13,4,20,0.00
2013-7-16,92.6,81.7,72.3,53.7,47.5,41.6,39,31,22,29.93,29.84,13,4,18,0.00
2013-7-17,82.0,75.1,70.1,57.8,51.5,43.2,62,44,32,29.99,29.92,17,8,27,0.00
2013-7-18,85.8,77.4,71.4,52.6,47.9,41.1,50,36,23,30.02,29.91,19,8,32,0.00
2013-7-19,88.7,78.9,71.4,50.7,44.4,37.0,42,30,20,30.02,29.85,14,5,26,0.00
2013-7-20,91.0,79.7,68.9,53.1,45.4,34.9,48,31,19,29.90,29.78,13,4,20,0.00
2013-7-21,94.6,84.0,72.1,52.2,46.1,41.8,38,27,19,29.89,29.78,13,5,22,0.00
2013-7-22,86.0,77.3,71.7,60.0,52.1,43.4,65,43,28,29.90,29.81,16,8,26,0.00
2013-7-23,89.9,79.0,68.1,55.0,44.7,0.0,56,34,4,29.90,29.81,15,6,23,0.00
2013-8-15,92.3,89.1,86.7,51.2,47.3,41.8,29,24,18,29.82,29.78,16,10,27,0.00
2013-8-17,87.6,80.2,73.0,61.3,56.6,52.4,66,46,34,29.92,29.81,19,11,30,0.00
2013-8-18,92.8,81.9,72.1,53.0,45.5,38.8,42,29,18,29.96,29.86,16,6,28,0.00
2013-8-19,93.7,82.1,70.8,54.1,46.7,42.0,39,30,19,29.95,29.84,16,5,30,0.00
2013-8-20,94.1,83.2,74.3,53.3,43.1,-8.0,38,26,2,29.92,29.78,16,6,21,0.00
2013-8-21,89.0,80.6,75.2,53.5,49.0,43.4,46,33,29,29.90,29.80,16,8,26,0.00
2013-8-22,88.5,78.0,70.8,58.6,52.8,48.6,57,42,31,29.90,29.79,17,7,26,0.00
2013-8-23,91.9,80.3,71.9,57.3,47.3,34.7,54,33,19,29.93,29.84,13,4,18,0.00
2013-8-24,96.0,82.6,70.5,50.5,31.7,-9.0,35,22,2,29.93,29.84,10,3,12,0.00
2013-8-25,97.7,83.5,70.7,55.4,35.7,-7.0,45,25,2,29.90,29.77,9,2,14,0.00
2013-8-26,101.4,84.9,70.7,55.5,43.5,-2.0,46,27,2,29.92,29.80,9,2,13,0.00
2013-8-27,103.6,87.1,73.0,56.8,47.9,-2.0,46,29,2,29.92,29.76,9,2,12,0.00
2013-8-28,104.7,88.8,75.5,57.2,46.5,-1.0,45,27,2,29.88,29.77,9,3,12,0.00
2013-8-29,101.3,85.7,74.8,57.4,52.4,45.0,48,34,16,29.90,29.80,10,3,16,0.00
2013-8-30,95.3,81.9,73.0,63.9,54.5,46.5,72,41,21,29.96,29.83,11,5,17,0.00
2013-8-31,90.6,78.9,71.6,62.2,50.3,42.5,69,38,23,29.96,29.89,12,4,18,0.00
2013-9-1,89.6,78.2,69.8,58.5,45.0,30.9,65,33,19,30.07,29.93,11,4,15,0.00
2013-9-2,91.5,78.0,67.6,55.8,34.8,-11.0,58,26,2,30.11,29.96,13,3,19,0.00
2013-9-3,96.9,80.2,67.8,56.7,52.9,49.5,62,41,23,30.09,29.93,9,2,13,0.00
2013-9-7,71.7,70.2,69.4,54.3,50.5,47.9,58,50,43,30.03,30.00,2,0,3,0.00
2013-9-8,91.2,77.6,68.0,56.5,48.0,35.4,64,37,24,30.08,29.99,11,4,16,0.00
2013-9-9,86.9,78.8,68.5,49.3,41.9,35.9,38,27,20,30.16,30.05,11,4,18,0.00
2013-9-10,95.0,83.7,67.4,54.8,40.9,-7.0,51,28,2,30.09,29.96,6,2,11,0.00
2013-9-11,99.3,82.8,68.5,57.4,51.1,42.3,52,35,22,30.05,29.90,6,2,12,0.00
2013-9-12,99.1,84.3,72.5,57.7,53.2,47.6,47,36,22,29.97,29.89,7,2,11,0.00
2013-9-13,96.9,81.7,72.3,60.7,55.6,50.1,62,42,23,29.97,29.89,10,3,13,0.00
2013-9-14,91.4,77.6,67.6,54.5,45.4,-11.0,51,36,2,30.04,29.92,10,3,17,0.00
2013-9-15,89.6,75.4,64.9,55.6,35.7,-13.0,64,36,2,30.03,29.85,8,3,16,0.00
2013-9-16,86.7,74.4,67.1,57.7,52.5,45.6,68,48,32,29.91,29.62,12,3,19,0.00
2013-9-17,89.4,75.8,65.1,57.5,52.3,47.2,70,46,28,29.72,29.62,11,3,13,0.00
2013-9-18,87.2,76.6,67.4,56.6,49.6,37.3,62,41,20,29.69,29.55,13,5,21,0.00
2013-9-19,93.0,77.9,66.2,56.0,50.7,44.1,59,41,22,29.78,29.63,6,2,11,0.00
2013-9-20,91.2,75.6,66.7,57.4,53.8,49.0,67,49,27,29.97,29.75,9,2,12,0.00
2013-9-21,84.0,71.5,64.7,61.2,54.1,48.6,85,57,35,30.04,29.94,8,2,13,0.00
2013-9-22,78.9,69.2,64.4,52.8,46.3,43.1,63,45,32,30.08,29.99,11,4,17,0.00
2013-9-23,79.5,68.2,61.3,49.1,43.1,37.5,60,41,24,30.06,29.87,9,4,17,0.00
2013-9-24,86.5,71.6,60.0,51.5,46.4,40.3,61,43,23,29.97,29.85,7,3,11,0.00
2013-9-25,89.0,74.1,61.5,61.9,52.2,44.0,78,50,23,30.03,29.93,8,2,10,0.00
2013-9-26,88.1,75.1,65.4,66.9,55.9,45.2,91,57,24,30.06,29.86,8,3,13,0.00
2013-9-27,91.7,75.3,64.0,59.7,52.5,42.5,71,49,20,29.94,29.84,9,3,13,0.00
2013-9-28,91.7,75.1,63.1,60.3,53.1,43.3,77,50,19,29.94,29.84,8,2,12,0.00
2013-9-29,91.5,76.8,65.8,58.8,53.1,46.6,67,46,28,29.97,29.84,7,2,9,0.00
2013-9-30,90.5,76.0,65.3,66.5,58.6,46.7,91,58,30,29.91,29.67,8,3,14,0.00
2013-10-1,81.1,71.6,64.0,67.2,58.1,44.9,93,66,34,29.69,29.52,16,4,28,0.28
2013-10-2,77.3,67.5,60.4,56.1,49.2,45.8,71,53,38,29.95,29.64,11,5,17,0.00
2013-10-3,68.1,59.3,55.7,50.2,43.6,37.5,75,57,41,30.26,29.92,11,4,17,0.09
2013-10-4,65.1,55.7,53.0,42.0,38.5,36.0,61,53,43,30.33,30.20,7,3,17,0.00
2013-10-5,67.8,56.7,49.8,39.2,36.0,33.5,61,47,34,30.33,30.23,9,4,14,0.00
2013-10-6,73.5,57.8,48.0,41.1,37.7,33.0,68,49,31,30.33,30.21,10,2,15,0.00
2013-10-7,73.0,60.7,49.8,42.6,39.6,36.5,72,48,28,30.33,30.23,9,3,15,0.00
2013-10-8,78.0,63.5,55.4,46.9,42.8,39.3,68,49,27,30.32,30.19,9,3,15,0.00
2013-10-9,81.8,65.6,53.7,51.7,42.6,-16.0,69,48,2,30.29,30.13,6,2,10,0.00
2013-10-10,69.6,64.3,59.1,60.5,55.9,49.5,89,75,66,30.16,30.03,7,2,12,0.00
2013-10-11,87.2,71.9,60.8,61.9,54.4,47.8,83,59,29,30.21,30.07,6,2,9,0.00
2013-10-12,90.1,73.6,62.2,63.5,58.0,51.8,87,62,30,30.22,30.12,6,2,9,0.00
2013-10-13,86.5,72.0,63.3,62.1,55.4,46.3,92,61,28,30.19,30.10,10,3,17,0.00
2013-10-14,87.6,71.5,60.8,55.0,48.7,41.9,73,48,21,30.16,30.04,6,2,13,0.00
2013-10-15,84.5,70.6,61.3,60.1,54.0,49.1,78,58,35,30.16,29.94,8,2,10,0.00
2013-10-16,71.4,67.0,62.7,63.6,58.2,54.4,89,74,61,29.97,29.58,11,2,17,0.08
2013-10-17,71.4,64.1,58.4,63.9,45.9,35.0,93,54,31,29.74,29.52,14,6,25,0.04
2013-10-18,78.2,66.1,58.8,50.6,41.7,37.5,68,42,25,30.04,29.74,15,5,23,0.00
2013-10-19,74.8,65.3,56.8,48.4,38.2,31.3,61,38,21,30.38,30.01,11,4,17,0.00
2013-10-20,75.7,62.9,54.6,46.0,39.8,34.8,67,45,26,30.42,30.32,9,2,13,0.00
2013-10-21,78.8,63.2,51.2,51.1,40.8,33.7,72,46,24,30.36,30.17,5,2,9,0.00
2013-10-22,82.0,65.7,54.5,55.1,46.6,-17.0,88,59,2,30.23,30.07,13,2,17,0.00
2013-10-23,80.7,68.5,57.3,49.8,43.1,35.8,73,41,30,30.22,30.10,13,4,23,0.00
2013-10-24,74.8,66.9,61.7,46.2,42.2,35.1,56,41,32,30.22,30.12,16,6,20,0.00
2013-10-25,74.6,65.2,57.9,46.7,40.2,31.2,65,41,30,30.20,30.08,14,7,19,0.00
2013-10-26,75.5,64.6,52.8,40.7,25.4,-12.0,46,26,4,30.20,30.11,14,5,20,0.00
2013-10-27,82.7,66.8,58.1,53.5,25.4,-17.0,77,31,2,30.16,30.04,11,3,15,0.00
2013-10-28,79.3,65.1,53.6,55.8,46.6,37.7,81,55,30,30.11,30.01,6,2,9,0.00
2013-10-29,82.4,65.7,54.5,52.3,45.7,38.0,82,52,22,30.11,29.93,6,2,11,0.00
2013-10-30,81.5,66.4,56.1,55.3,47.3,34.1,84,54,20,30.10,29.98,7,2,13,0.00
2013-10-31,77.5,68.2,59.9,46.1,41.5,36.1,50,38,32,30.16,30.03,10,4,18,0.00
2013-11-1,69.9,63.8,58.8,48.0,43.9,38.5,67,49,38,30.19,30.12,13,5,21,0.00
2013-11-3,59.3,59.0,58.6,54.1,53.7,53.1,83,82,82,30.07,30.04,2,1,3,0.00
2013-11-4,80.7,66.2,58.4,60.9,53.5,42.8,90,68,33,30.07,29.92,4,2,7,0.00
2013-11-5,76.6,66.9,59.5,59.4,54.5,45.2,92,67,36,29.95,29.70,12,4,19,0.00
2013-11-6,66.3,60.2,57.2,60.0,55.3,49.6,94,84,59,29.76,29.58,14,3,19,1.07
2013-11-7,68.0,61.1,53.4,57.7,44.3,28.3,92,58,23,30.11,29.68,15,5,26,0.04
2013-11-8,75.7,61.9,52.1,47.4,41.0,31.2,73,48,29,30.19,30.05,6,2,7,0.00
2013-11-9,77.0,62.2,52.5,54.0,46.5,40.9,82,59,32,30.14,29.98,6,2,9,0.00
2013-11-10,74.6,62.9,54.6,56.4,51.4,45.5,92,69,41,30.02,29.86,6,2,9,0.00
2013-11-11,75.0,63.8,58.2,69.2,59.1,54.0,97,85,54,29.98,29.81,9,4,20,0.25
2013-11-12,70.3,64.4,60.0,63.9,59.8,45.7,97,86,54,30.10,29.94,12,5,21,0.25
2013-11-13,72.5,62.0,56.6,53.6,48.2,42.8,82,62,43,30.11,29.94,8,3,15,0.00
2013-11-14,64.4,58.6,55.4,53.7,49.7,45.0,90,73,54,29.99,29.82,11,5,20,0.41
2013-11-15,62.7,58.1,55.2,51.0,47.0,44.2,81,67,54,30.11,29.93,14,7,22,0.00
2013-11-16,60.9,56.4,54.5,48.1,43.0,36.7,73,61,51,30.20,30.08,16,7,26,0.00
2013-11-17,61.1,54.8,51.6,42.4,37.3,34.7,66,52,40,30.21,30.10,13,6,23,0.00
2013-11-18,63.1,55.2,50.9,40.4,37.4,35.5,61,51,40,30.18,30.07,12,5,19,0.00
2013-11-19,68.3,57.2,48.7,49.5,41.7,35.5,75,58,38,30.18,30.02,7,2,10,0.00
2013-11-20,71.0,61.6,57.3,62.6,55.3,49.5,96,81,56,30.05,29.84,9,4,13,0.61
2013-11-21,74.6,61.7,55.2,55.8,49.8,44.4,93,67,42,29.92,29.76,9,3,17,0.25
2013-11-22,67.6,58.5,53.6,56.0,48.0,39.8,95,71,40,29.84,29.70,7,2,12,0.00
2013-11-23,70.8,59.4,52.5,53.2,48.7,44.9,86,69,46,29.84,29.70,12,3,19,0.00
2013-11-24,63.1,57.4,54.5,57.1,51.9,44.2,93,82,64,29.84,29.68,11,3,15,0.87
2013-11-25,67.4,57.1,50.7,51.3,44.2,38.0,89,64,36,29.78,29.70,6,2,10,0.00
2013-11-26,69.4,56.3,50.5,50.9,43.9,36.7,80,65,35,29.84,29.66,9,2,12,0.00
2013-11-27,62.4,53.6,46.2,47.7,36.2,25.6,80,55,27,30.25,29.78,11,3,19,0.00
2013-11-28,57.9,51.2,43.1,36.5,30.6,23.9,66,46,36,30.33,30.20,9,4,15,0.00
2013-11-29,62.7,50.6,42.0,40.2,32.5,25.2,72,51,36,30.25,30.09,4,2,6,0.00
2013-11-30,55.7,51.6,46.4,47.2,40.5,36.7,81,66,53,30.18,30.02,9,4,13,0.05
2013-12-1,63.1,58.3,51.2,56.9,51.2,42.1,91,78,61,30.09,29.95,17,7,27,0.13
2013-12-2,68.7,59.0,55.4,57.5,53.2,46.2,92,81,55,30.08,29.92,13,6,23,0.74
2013-12-3,56.3,47.5,41.1,50.3,37.9,28.2,84,70,52,30.19,30.02,28,14,45,0.13
2013-12-4,46.0,42.3,40.1,37.3,32.8,26.4,88,70,52,30.20,30.04,15,5,32,0.24
2013-12-5,60.8,48.8,39.5,34.2,26.2,14.9,64,43,24,30.10,30.01,10,3,17,0.00
2013-12-6,61.5,50.5,41.0,40.7,26.9,16.3,69,40,32,30.13,29.83,7,2,11,0.00
2013-12-7,59.3,50.2,44.7,47.6,34.4,20.7,78,56,38,30.25,29.85,17,7,24,0.00
2013-12-8,52.5,45.7,39.7,22.5,18.3,8.3,42,34,18,30.44,30.22,16,6,27,0.00
2013-12-9,60.0,48.2,37.9,32.5,17.6,-9.0,55,34,6,30.47,30.21,8,2,12,0.00
2013-12-10,58.4,49.2,41.7,39.4,31.6,23.4,75,52,36,30.41,30.08,24,6,39,0.12
2013-12-11,44.6,39.7,37.4,23.8,17.4,13.7,49,40,29,30.50,30.35,18,8,32,0.00
2013-12-12,49.4,41.7,33.0,29.3,22.8,14.5,56,47,30,30.48,30.21,10,3,13,0.00
2013-12-13,49.6,44.5,39.9,37.3,34.6,29.3,81,69,56,30.25,30.15,6,2,11,0.00
2013-12-14,61.7,48.1,39.2,39.2,33.8,30.0,81,60,36,30.40,30.23,4,2,7,0.00
2013-12-15,64.5,52.6,45.8,49.5,42.3,37.8,90,70,43,30.37,30.30,5,2,8,0.00
2013-12-16,57.5,49.8,47.1,46.6,39.2,30.4,90,68,48,30.43,30.30,11,4,21,0.00
2013-12-17,49.2,46.2,42.8,35.2,31.3,27.7,68,56,48,30.46,30.33,13,5,22,0.00
2013-12-18,46.9,44.0,42.0,38.3,34.5,31.4,78,69,63,30.37,30.22,11,5,20,0.00
2013-12-19,52.3,45.3,39.5,39.8,33.6,27.7,85,65,46,30.35,30.22,12,4,17,0.00
2013-12-20,60.0,46.4,37.0,36.3,32.1,27.8,74,59,37,30.50,30.29,4,2,8,0.00
2013-12-21,62.4,48.8,39.7,42.9,35.9,27.9,80,63,37,30.56,30.44,4,2,8,0.00
2013-12-22,62.2,49.6,39.9,34.5,27.5,-6.0,72,45,6,30.56,30.37,11,3,19,0.00
2013-12-23,62.4,48.0,39.2,38.9,33.9,26.4,77,60,35,30.44,30.25,5,2,9,0.00
2013-12-24,53.4,48.7,44.6,43.7,40.0,36.8,80,72,56,30.34,30.18,6,1,10,0.00
2013-12-25,65.4,54.8,48.7,48.0,44.1,39.9,85,68,44,30.27,30.07,9,3,15,0.09
2013-12-26,65.1,55.4,48.3,53.6,49.3,44.0,92,81,54,30.09,29.90,8,2,10,0.08
2013-12-27,56.6,54.0,50.7,53.7,50.0,47.2,92,86,75,29.90,29.78,12,4,19,0.95
2013-12-28,60.0,53.1,50.3,48.8,44.7,35.2,93,74,52,29.93,29.81,11,5,20,0.13
2013-12-29,61.1,54.1,49.1,41.8,35.9,29.7,62,50,38,30.12,29.90,13,6,22,0.00
2013-12-30,63.5,53.5,46.4,40.6,34.2,28.1,70,48,34,30.15,30.04,11,5,17,0.00
2013-12-31,55.0,48.3,44.4,39.0,34.7,31.9,69,59,47,30.22,30.12,15,4,26,0.00
2014-1-1,50.5,47.3,44.4,42.5,37.5,32.1,81,69,55,30.22,30.09,10,3,16,3.04
2014-1-2,56.3,50.2,46.4,42.3,37.5,32.6,81,62,49,30.16,30.05,13,5,17,1.64